Location: Obersdorf
(47.4079°N, 10.2781°E)
Time: 20:13:56
(UTC+02:00)

Nauka - Pass Details

Date: 29 September 2021
Orbit: 417 x 423 km, 51.6° (Epoch: 26 October)

Event Time Altitude Azimuth Distance (km) Brightness Sun altitude
Rises 20:13:52 0° 291° (WNW) 2,366 ? -12.9°
Reaches altitude 10° 20:16:00 10° 297° (WNW) 1,502 ? -13.3°
Maximum altitude 20:19:18 51° 15° (NNE) 538 ? -13.8°
Enters shadow 20:20:52 26° 79° (E) 856 ? -14.1°
